TimeEST,TemperatureF,Dew PointF,Humidity,Sea Level PressureIn,VisibilityMPH,Wind Direction,Wind SpeedMPH,Gust SpeedMPH,PrecipitationIn,Events,Conditions,WindDirDegrees,DateUTC
12:00 AM,75.2,66.2,73,30.06,6.2,North,8.1,-,N/A,,Partly Cloudy,360,2012-11-19 05:00:00
1:00 AM,74,67,71,30.05,9,NNW,5.8,,,,Scattered Clouds,330,2012-11-19 06:00:00
1:00 AM,75.2,66.2,73,30.05,6.2,NNW,5.8,-,N/A,,Partly Cloudy,330,2012-11-19 06:00:00
2:00 AM,73.4,66.2,78,30.03,6.2,NNW,6.9,-,N/A,,Partly Cloudy,330,2012-11-19 07:00:00
3:00 AM,73.4,66.2,78,30.03,6.2,WNW,5.8,-,N/A,,Partly Cloudy,300,2012-11-19 08:00:00
4:00 AM,74,66,69,30.01,9,NNW,5.8,,,,Scattered Clouds,330,2012-11-19 09:00:00
4:00 AM,73.4,66.2,78,30.01,6.2,NNW,5.8,-,N/A,,Partly Cloudy,330,2012-11-19 09:00:00
5:00 AM,73.4,66.2,78,30.02,6.2,North,3.5,-,N/A,,Scattered Clouds,350,2012-11-19 10:00:00
6:00 AM,73.4,66.2,78,30.03,6.2,NNW,6.9,-,N/A,,Scattered Clouds,330,2012-11-19 11:00:00
7:00 AM,74,67,71,30.06,9,NW,5.8,,,,Partly Cloudy,310,2012-11-19 12:00:00
7:00 AM,73.4,66.2,78,30.05,6.2,NW,5.8,-,N/A,,Scattered Clouds,310,2012-11-19 12:00:00
8:00 AM,75.2,64.4,69,30.06,6.2,NNW,8.1,-,N/A,,Scattered Clouds,330,2012-11-19 13:00:00
9:00 AM,75.2,66.2,73,30.07,6.2,NW,8.1,-,N/A,,Scattered Clouds,310,2012-11-19 14:00:00
10:00 AM,78,66,59,30.09,9,WNW,11.5,,,,Partly Cloudy,290,2012-11-19 15:00:00
10:00 AM,78.8,66.2,65,30.09,6.2,WNW,11.5,-,N/A,,Scattered Clouds,290,2012-11-19 15:00:00
11:00 AM,77.0,64.4,65,30.07,6.2,NW,6.9,-,N/A,,Scattered Clouds,320,2012-11-19 16:00:00
12:00 PM,77.0,66.2,69,30.06,6.2,North,8.1,-,N/A,,Scattered Clouds,10,2012-11-19 17:00:00
1:00 PM,79,67,57,30.04,9,West,11.5,,,,Partly Cloudy,260,2012-11-19 18:00:00
1:00 PM,78.8,66.2,65,30.03,6.2,West,11.5,-,N/A,,Scattered Clouds,260,2012-11-19 18:00:00
2:00 PM,75.2,64.4,69,30.00,6.2,West,11.5,-,N/A,,Scattered Clouds,280,2012-11-19 19:00:00
3:00 PM,75.2,62.6,65,29.98,6.2,West,11.5,-,N/A,,Partly Cloudy,270,2012-11-19 20:00:00
4:00 PM,77.0,62.6,61,29.97,6.2,West,11.5,-,N/A,,Partly Cloudy,280,2012-11-19 21:00:00
5:00 PM,73.4,62.6,69,29.97,6.2,WNW,11.5,-,N/A,,Partly Cloudy,290,2012-11-19 22:00:00
6:00 PM,73.4,62.6,69,29.97,6.2,West,6.9,-,N/A,,Partly Cloudy,270,2012-11-19 23:00:00
7:00 PM,73,63,62,29.98,9,WSW,11.5,,,,Scattered Clouds,250,2012-11-20 00:00:00
7:00 PM,73.4,62.6,69,29.98,6.2,WSW,11.5,-,N/A,,Partly Cloudy,250,2012-11-20 00:00:00
8:00 PM,73.4,60.8,65,29.99,6.2,West,5.8,-,N/A,,Partly Cloudy,270,2012-11-20 01:00:00
9:00 PM,73.4,62.6,69,29.99,6.2,West,5.8,-,N/A,,Scattered Clouds,270,2012-11-20 02:00:00
10:00 PM,73,65,69,29.99,9,West,8.1,,,,Partly Cloudy,270,2012-11-20 03:00:00
10:00 PM,73.4,64.4,73,29.99,6.2,West,8.1,-,N/A,,Scattered Clouds,270,2012-11-20 03:00:00
11:00 PM,73.4,64.4,73,29.98,6.2,West,9.2,-,N/A,,Scattered Clouds,270,2012-11-20 04:00:00